QPF
0.00 0.01 0.00 0.00 0.01 0.01 0.01 0.01 0.01 0.01 0.01 0.01 0.01 0.02 0.02 0.02 0.01 0.01 0.02 0.01 0.01 0.01 0.01 0.01 0.01 0.01 0.01 0.01 0.01 0.02 0.03 0.05 0.04 0.03 0.03 0.02 0.02 0.02 0.02 0.02 0.01 0.02 0.03 0.04
0.01 0.00 0.00 0.00 0.01 0.01 0.01 0.00 0.01 0.01 0.00 0.00 0.01 0.01 0.01 0.02 0.02 0.02 0.02 0.02 0.01 0.01 0.01 0.00 0.01 0.01 0.01 0.01 0.01 0.01 0.02 0.04 0.04 0.03 0.03 0.01 0.01 0.01 0.02 0.02 0.02 0.02 0.02 0.02
0.00 0.00 0.00 0.01 0.01 0.01 0.01 0.00 0.00 0.01 0.00 0.00 0.01 0.01 0.01 0.02 0.02 0.03 0.02 0.02 0.02 0.01 0.01 0.01 0.01 0.01 0.01 0.01 0.01 0.01 0.01 0.02 0.02 0.02 0.02 0.01 0.01 0.02 0.02 0.03 0.02 0.02 0.02 0.02
0.01 0.00 0.01 0.01 0.01 0.00 0.00 0.00 0.00 0.01 0.00 0.00 0.00 0.00 0.01 0.02 0.03 0.03 0.03 0.02 0.02 0.01 0.01 0.01 0.01 0.01 0.01 0.01 0.01 0.01 0.01 0.01 0.01 0.01 0.01 0.01 0.02 0.02 0.03 0.04 0.01 0.02 0.02 0.01
0.01 0.01 0.01 0.01 0.01 0.00 0.00 0.00 0.00 0.00 0.00 0.00 0.01 0.01 0.01 0.02 0.02 0.02 0.02 0.01 0.01 0.00 0.01 0.02 0.01 0.01 0.01 0.01 0.01 0.01 0.01 0.01 0.01 0.01 0.01 0.03 0.04 0.03 0.03 0.02 0.01 0.02 0.01 0.01
0.01 0.00 0.00 0.00 0.01 0.01 0.00 0.01 0.00 0.00 0.00 0.01 0.00 0.00 0.01 0.01 0.01 0.01 0.02 0.01 0.00 0.01 0.02 0.01 0.01 0.01 0.01 0.01 0.01 0.01 0.01 0.01 0.01 0.01 0.04 0.08 0.08 0.04 0.02 0.02 0.01 0.01 0.01 0.00
0.00 0.00 0.00 0.00 0.00 0.01 0.01 0.01 0.00 0.00 0.00 0.00 0.00 0.00 0.01 0.02 0.01 0.01 0.02 0.01 0.01 0.01 0.02 0.01 0.01 0.01 0.01 0.01 0.01 0.02 0.02 0.02 0.02 0.02 0.05 0.06 0.04 0.02 0.02 0.01 0.01 0.01 0.01 0.01
0.00 0.00 0.00 0.00 0.01 0.01 0.01 0.01 0.00 0.00 0.00 0.00 0.00 0.00 0.00 0.01 0.01 0.01 0.02 0.02 0.02 0.02 0.02 0.01 0.01 0.01 0.01 0.01 0.02 0.03 0.03 0.03 0.03 0.03 0.03 0.03 0.03 0.01 0.01 0.01 0.02 0.02 0.02 0.03
0.00 0.00 0.00 0.00 0.00 0.01 0.01 0.01 0.01 0.00 0.00 0.00 0.00 0.00 0.01 0.01 0.01 0.01 0.01 0.02 0.03 0.03 0.02 0.02 0.01 0.01 0.01 0.01 0.02 0.04 0.03 0.03 0.04 0.04 0.05 0.04 0.03 0.02 0.02 0.02 0.02 0.02 0.03 0.02
0.00 0.00 0.00 0.00 0.01 0.01 0.01 0.01 0.01 0.01 0.00 0.00 0.00 0.00 0.00 0.01 0.01 0.01 0.01 0.01 0.02 0.02 0.02 0.02 0.01 0.01 0.01 0.01 0.02 0.02 0.03 0.02 0.03 0.04 0.07 0.05 0.04 0.03 0.02 0.02 0.02 0.02 0.02 0.02
0.00 0.00 0.00 0.00 0.01 0.01 0.01 0.01 0.00 0.01 0.00 0.00 0.00 0.00 0.00 0.00 0.01 0.01 0.01 0.01 0.02 0.04 0.03 0.01 0.01 0.01 0.01 0.01 0.02 0.02 0.02 0.01 0.02 0.03 0.05 0.08 0.09 0.07 0.03 0.02 0.02 0.03 0.03 0.03
0.00 0.00 0.00 0.00 0.00 0.01 0.01 0.01 0.01 0.01 0.00 0.00 0.00 0.00 0.00 0.01 0.01 0.01 0.01 0.02 0.03 0.05 0.08 0.06 0.04 0.04 0.01 0.01 0.01 0.01 0.02 0.02 0.03 0.07 0.10 0.18 0.18 0.07 0.03 0.02 0.03 0.02 0.03 0.03
0.00 0.00 0.00 0.00 0.00 0.01 0.01 0.02 0.02 0.01 0.01 0.00 0.00 0.00 0.00 0.00 0.00 0.01 0.01 0.03 0.04 0.04 0.05 0.06 0.07 0.06 0.03 0.02 0.03 0.03 0.04 0.03 0.04 0.06 0.07 0.08 0.06 0.04 0.03 0.03 0.03 0.03 0.03 0.03
0.00 0.00 0.00 0.01 0.01 0.01 0.02 0.01 0.01 0.02 0.01 0.01 0.00 0.00 0.00 0.01 0.01 0.02 0.02 0.04 0.04 0.04 0.04 0.06 0.07 0.06 0.05 0.04 0.03 0.03 0.04 0.04 0.04 0.04 0.04 0.04 0.04 0.03 0.04 0.03 0.03 0.02 0.02 0.02
0.00 0.00 0.00 0.01 0.01 0.01 0.01 0.01 0.01 0.01 0.01 0.01 0.01 0.00 0.00 0.01 0.01 0.02 0.02 0.04 0.03 0.03 0.04 0.05 0.05 0.04 0.04 0.04 0.04 0.04 0.04 0.03 0.03 0.03 0.03 0.03 0.03 0.03 0.04 0.04 0.04 0.02 0.02 0.01
0.00 0.00 0.01 0.01 0.01 0.01 0.01 0.01 0.01 0.01 0.01 0.01 0.01 0.01 0.01 0.01 0.02 0.03 0.03 0.03 0.03 0.03 0.03 0.04 0.03 0.03 0.03 0.04 0.04 0.04 0.03 0.03 0.03 0.03 0.03 0.02 0.02 0.02 0.02 0.02 0.02 0.01 0.01 0.01
0.00 0.01 0.01 0.01 0.01 0.02 0.02 0.01 0.02 0.02 0.01 0.03 0.02 0.01 0.01 0.01 0.02 0.02 0.02 0.02 0.02 0.02 0.02 0.02 0.03 0.02 0.03 0.03 0.03 0.03 0.02 0.03 0.04 0.04 0.02 0.02 0.01 0.01 0.01 0.00 0.00 0.00 0.01 0.01
0.00 0.00 0.00 0.00 0.01 0.01 0.02 0.02 0.01 0.02 0.02 0.02 0.02 0.02 0.02 0.01 0.01 0.01 0.01 0.01 0.01 0.01 0.01 0.02 0.02 0.03 0.02 0.02 0.02 0.02 0.02 0.03 0.05 0.03 0.02 0.02 0.01 0.01 0.01 0.01 0.01 0.01 0.01 0.01
0.01 0.01 0.00 0.01 0.01 0.02 0.03 0.02 0.02 0.02 0.02 0.02 0.02 0.03 0.02 0.01 0.01 0.01 0.01 0.01 0.01 0.01 0.02 0.02 0.03 0.03 0.03 0.02 0.02 0.01 0.02 0.02 0.02 0.01 0.01 0.01 0.01 0.01 0.01 0.01 0.01 0.02 0.02 0.02
0.01 0.01 0.01 0.01 0.01 0.02 0.01 0.01 0.02 0.02 0.02 0.00 0.00 0.01 0.01 0.01 0.01 0.01 0.01 0.02 0.02 0.03 0.03 0.03 0.02 0.03 0.03 0.04 0.03 0.02 0.02 0.02 0.01 0.01 0.01 0.00 0.01 0.01 0.01 0.01 0.02 0.02 0.01 0.01
0.01 0.01 0.01 0.01 0.01 0.01 0.01 0.01 0.01 0.01 0.01 0.00 0.00 0.01 0.01 0.01 0.01 0.01 0.01 0.02 0.03 0.04 0.04 0.02 0.02 0.03 0.04 0.05 0.04 0.02 0.02 0.01 0.01 0.01 0.01 0.01 0.01 0.01 0.01 0.01 0.01 0.01 0.01 0.01
0.01 0.01 0.01 0.01 0.01 0.00 0.01 0.01 0.02 0.02 0.01 0.01 0.01 0.01 0.01 0.01 0.01 0.01 0.01 0.02 0.03 0.04 0.04 0.02 0.01 0.02 0.03 0.04 0.05 0.03 0.02 0.01 0.01 0.01 0.02 0.02 0.01 0.01 0.01 0.01 0.01 0.01 0.01 0.00
0.01 0.01 0.01 0.01 0.00 0.00 0.00 0.00 0.01 0.01 0.01 0.01 0.01 0.01 0.01 0.01 0.01 0.02 0.02 0.02 0.03 0.03 0.02 0.01 0.02 0.02 0.02 0.02 0.04 0.03 0.02 0.01 0.01 0.01 0.02 0.01 0.02 0.01 0.01 0.01 0.01 0.02 0.02 0.01
0.01 0.01 0.01 0.00 0.00 0.00 0.00 0.00 0.01 0.01 0.01 0.01 0.01 0.01 0.01 0.01 0.02 0.03 0.03 0.02 0.02 0.02 0.02 0.02 0.02 0.02 0.02 0.01 0.02 0.03 0.03 0.02 0.01 0.01 0.02 0.02 0.02 0.02 0.02 0.01 0.01 0.02 0.02 0.02
0.01 0.01 0.01 0.01 0.01 0.01 0.01 0.02 0.02 0.01 0.01 0.01 0.01 0.01 0.01 0.01 0.01 0.02 0.03 0.02 0.02 0.02 0.01 0.02 0.02 0.02 0.02 0.02 0.03 0.04 0.05 0.03 0.02 0.02 0.02 0.02 0.02 0.02 0.02 0.01 0.01 0.01 0.01 0.01
0.01 0.01 0.01 0.01 0.01 0.02 0.02 0.03 0.02 0.02 0.01 0.01 0.01 0.01 0.01 0.01 0.01 0.01 0.01 0.02 0.02 0.01 0.01 0.02 0.02 0.02 0.02 0.02 0.03 0.03 0.04 0.04 0.02 0.02 0.02 0.02 0.02 0.02 0.02 0.01 0.01 0.02 0.01 0.02
MSLP
1013.82 1014.75 1015.45 1015.89 1016.08 1016.06 1015.86 1015.56 1015.20 1014.81 1014.40 1013.97 1013.51 1013.02 1012.48 1011.92 1011.35 1010.81 1010.32 1009.91 1009.56 1009.28 1009.05 1008.84 1008.64 1008.43 1008.21 1008.02 1007.87 1007.80 1007.84 1007.99 1008.23 1008.53 1008.85 1009.15 1009.38 1009.52 1009.57 1009.53 1009.44 1009.32 1009.20 1009.07
1014.53 1015.24 1015.72 1015.98 1016.04 1015.97 1015.82 1015.64 1015.45 1015.25 1015.02 1014.73 1014.35 1013.87 1013.28 1012.61 1011.92 1011.25 1010.66 1010.17 1009.80 1009.55 1009.37 1009.24 1009.12 1008.98 1008.82 1008.66 1008.53 1008.46 1008.49 1008.63 1008.88 1009.21 1009.58 1009.93 1010.23 1010.43 1010.54 1010.55 1010.49 1010.39 1010.26 1010.14
1014.95 1015.42 1015.69 1015.78 1015.76 1015.70 1015.65 1015.64 1015.66 1015.69 1015.66 1015.51 1015.20 1014.72 1014.06 1013.28 1012.45 1011.64 1010.94 1010.39 1010.01 1009.79 1009.69 1009.65 1009.63 1009.59 1009.51 1009.41 1009.31 1009.25 1009.28 1009.43 1009.68 1010.03 1010.43 1010.84 1011.20 1011.47 1011.63 1011.68 1011.64 1011.55 1011.41 1011.27
1015.05 1015.30 1015.37 1015.34 1015.29 1015.30 1015.40 1015.60 1015.87 1016.14 1016.31 1016.31 1016.06 1015.56 1014.82 1013.92 1012.94 1012.00 1011.20 1010.59 1010.20 1010.02 1010.01 1010.08 1010.18 1010.25 1010.27 1010.23 1010.17 1010.14 1010.18 1010.32 1010.58 1010.94 1011.37 1011.81 1012.22 1012.54 1012.74 1012.83 1012.81 1012.70 1012.54 1012.35
1014.90 1014.94 1014.86 1014.76 1014.73 1014.85 1015.15 1015.59 1016.13 1016.63 1016.99 1017.11 1016.91 1016.39 1015.56 1014.53 1013.42 1012.36 1011.46 1010.80 1010.42 1010.29 1010.36 1010.55 1010.77 1010.96 1011.07 1011.11 1011.10 1011.09 1011.13 1011.27 1011.52 1011.88 1012.31 1012.78 1013.21 1013.56 1013.80 1013.90 1013.88 1013.76 1013.57 1013.32
1014.58 1014.44 1014.25 1014.13 1014.18 1014.45 1014.96 1015.65 1016.43 1017.15 1017.67 1017.89 1017.72 1017.15 1016.25 1015.11 1013.88 1012.72 1011.76 1011.08 1010.72 1010.65 1010.81 1011.10 1011.43 1011.72 1011.93 1012.03 1012.06 1012.07 1012.11 1012.23 1012.46 1012.80 1013.21 1013.67 1014.10 1014.47 1014.71 1014.82 1014.80 1014.66 1014.43 1014.14
1014.19 1013.92 1013.68 1013.58 1013.73 1014.16 1014.87 1015.78 1016.75 1017.64 1018.29 1018.56 1018.40 1017.80 1016.83 1015.61 1014.31 1013.11 1012.12 1011.44 1011.12 1011.11 1011.35 1011.74 1012.17 1012.54 1012.82 1012.98 1013.04 1013.05 1013.08 1013.17 1013.36 1013.65 1014.03 1014.45 1014.86 1015.21 1015.45 1015.56 1015.53 1015.38 1015.13 1014.80
1013.84 1013.48 1013.23 1013.18 1013.43 1014.01 1014.88 1015.94 1017.05 1018.04 1018.74 1019.04 1018.87 1018.24 1017.23 1015.99 1014.68 1013.47 1012.51 1011.88 1011.61 1011.68 1012.00 1012.46 1012.96 1013.40 1013.72 1013.92 1013.99 1014.00 1014.01 1014.06 1014.20 1014.43 1014.76 1015.12 1015.49 1015.81 1016.03 1016.13 1016.10 1015.94 1015.68 1015.34
1013.57 1013.19 1012.96 1012.98 1013.32 1014.00 1014.96 1016.09 1017.25 1018.25 1018.94 1019.22 1019.02 1018.38 1017.38 1016.16 1014.90 1013.77 1012.89 1012.35 1012.17 1012.31 1012.70 1013.23 1013.77 1014.25 1014.60 1014.81 1014.89 1014.89 1014.87 1014.89 1014.98 1015.15 1015.40 1015.71 1016.02 1016.30 1016.49 1016.57 1016.54 1016.39 1016.14 1015.80
1013.41 1013.06 1012.89 1012.97 1013.37 1014.09 1015.06 1016.17 1017.27 1018.20 1018.82 1019.03 1018.79 1018.15 1017.20 1016.07 1014.93 1013.93 1013.19 1012.79 1012.71 1012.95 1013.40 1013.96 1014.53 1015.03 1015.39 1015.60 1015.69 1015.69 1015.66 1015.65 1015.70 1015.82 1016.01 1016.25 1016.50 1016.73 1016.88 1016.95 1016.92 1016.78 1016.55 1016.24
1013.35 1013.08 1012.98 1013.12 1013.54 1014.23 1015.12 1016.11 1017.06 1017.83 1018.31 1018.42 1018.15 1017.53 1016.66 1015.67 1014.71 1013.91 1013.36 1013.11 1013.17 1013.49 1014.00 1014.59 1015.17 1015.66 1016.03 1016.26 1016.36 1016.37 1016.35 1016.33 1016.36 1016.45 1016.60 1016.78 1016.98 1017.15 1017.27 1017.32 1017.28 1017.15 1016.94 1016.66
1013.35 1013.20 1013.18 1013.36 1013.76 1014.36 1015.10 1015.88 1016.60 1017.15 1017.44 1017.43 1017.12 1016.54 1015.80 1014.99 1014.25 1013.68 1013.34 1013.28 1013.48 1013.89 1014.44 1015.04 1015.62 1016.12 1016.49 1016.73 1016.87 1016.92 1016.93 1016.95 1016.99 1017.07 1017.19 1017.34 1017.48 1017.61 1017.68 1017.70 1017.65 1017.53 1017.34 1017.08
1013.38 1013.35 1013.43 1013.63 1013.97 1014.42 1014.95 1015.47 1015.91 1016.20 1016.29 1016.14 1015.79 1015.27 1014.67 1014.07 1013.58 1013.25 1013.15 1013.27 1013.60 1014.10 1014.68 1015.30 1015.87 1016.36 1016.75 1017.03 1017.21 1017.33 1017.41 1017.49 1017.57 1017.67 1017.79 1017.91 1018.02 1018.09 1018.13 1018.11 1018.04 1017.91 1017.72 1017.48
1013.40 1013.51 1013.66 1013.86 1014.11 1014.39 1014.67 1014.90 1015.04 1015.05 1014.92 1014.65 1014.27 1013.83 1013.38 1013.00 1012.76 1012.68 1012.80 1013.10 1013.56 1014.12 1014.74 1015.36 1015.93 1016.43 1016.84 1017.16 1017.42 1017.62 1017.80 1017.95 1018.10 1018.24 1018.37 1018.48 1018.56 1018.59 1018.59 1018.53 1018.43 1018.28 1018.09 1017.85
1013.42 1013.64 1013.84 1014.01 1014.14 1014.22 1014.24 1014.18 1014.03 1013.79 1013.46 1013.08 1012.69 1012.33 1012.04 1011.88 1011.87 1012.04 1012.36 1012.82 1013.38 1014.01 1014.65 1015.27 1015.84 1016.35 1016.79 1017.18 1017.52 1017.82 1018.10 1018.35 1018.57 1018.76 1018.91 1019.02 1019.07 1019.08 1019.03 1018.94 1018.80 1018.63 1018.42 1018.17
1013.43 1013.73 1013.94 1014.04 1014.04 1013.92 1013.69 1013.36 1012.95 1012.48 1011.99 1011.54 1011.15 1010.88 1010.76 1010.80 1011.01 1011.38 1011.88 1012.48 1013.13 1013.80 1014.46 1015.09 1015.66 1016.19 1016.68 1017.13 1017.55 1017.95 1018.33 1018.67 1018.97 1019.21 1019.39 1019.49 1019.53 1019.51 1019.43 1019.31 1019.15 1018.96 1018.73 1018.47
1013.43 1013.75 1013.92 1013.94 1013.79 1013.47 1013.02 1012.45 1011.82 1011.18 1010.59 1010.09 1009.74 1009.57 1009.60 1009.83 1010.23 1010.78 1011.43 1012.13 1012.86 1013.58 1014.25 1014.89 1015.47 1016.03 1016.56 1017.07 1017.57 1018.06 1018.51 1018.93 1019.28 1019.57 1019.76 1019.88 1019.91 1019.87 1019.77 1019.63 1019.46 1019.26 1019.03 1018.76
1013.42 1013.69 1013.78 1013.68 1013.37 1012.87 1012.23 1011.47 1010.69 1009.94 1009.29 1008.80 1008.51 1008.45 1008.62 1009.01 1009.57 1010.26 1011.03 1011.83 1012.62 1013.37 1014.07 1014.72 1015.33 1015.91 1016.48 1017.04 1017.60 1018.15 1018.67 1019.13 1019.52 1019.83 1020.04 1020.15 1020.19 1020.14 1020.05 1019.91 1019.75 1019.56 1019.35 1019.09
1013.36 1013.53 1013.50 1013.24 1012.78 1012.12 1011.32 1010.45 1009.57 1008.77 1008.12 1007.67 1007.47 1007.52 1007.82 1008.35 1009.05 1009.86 1010.72 1011.60 1012.43 1013.22 1013.94 1014.61 1015.24 1015.85 1016.46 1017.06 1017.66 1018.24 1018.79 1019.28 1019.68 1020.00 1020.21 1020.33 1020.37 1020.34 1020.26 1020.15 1020.02 1019.87 1019.69 1019.47
1013.21 1013.23 1013.04 1012.63 1012.02 1011.23 1010.34 1009.39 1008.49 1007.69 1007.09 1006.71 1006.61 1006.78 1007.21 1007.85 1008.66 1009.56 1010.50 1011.43 1012.31 1013.13 1013.88 1014.57 1015.23 1015.86 1016.49 1017.11 1017.73 1018.33 1018.88 1019.37 1019.77 1020.08 1020.29 1020.41 1020.46 1020.46 1020.42 1020.35 1020.28 1020.18 1020.05 1019.88
1012.91 1012.76 1012.40 1011.85 1011.11 1010.24 1009.29 1008.34 1007.46 1006.73 1006.20 1005.94 1005.95 1006.23 1006.76 1007.50 1008.39 1009.35 1010.34 1011.31 1012.23 1013.08 1013.86 1014.58 1015.26 1015.92 1016.56 1017.19 1017.81 1018.40 1018.93 1019.40 1019.79 1020.08 1020.29 1020.42 1020.49 1020.52 1020.52 1020.52 1020.51 1020.47 1020.41 1020.30
1012.43 1012.10 1011.59 1010.90 1010.08 1009.17 1008.23 1007.32 1006.52 1005.90 1005.49 1005.35 1005.47 1005.86 1006.47 1007.29 1008.22 1009.23 1010.25 1011.25 1012.20 1013.07 1013.88 1014.62 1015.32 1015.99 1016.64 1017.27 1017.87 1018.43 1018.94 1019.38 1019.74 1020.02 1020.22 1020.37 1020.46 1020.53 1020.59 1020.64 1020.69 1020.72 1020.72 1020.67
1011.72 1011.23 1010.60 1009.84 1008.98 1008.09 1007.20 1006.39 1005.72 1005.23 1004.97 1004.95 1005.19 1005.66 1006.35 1007.20 1008.17 1009.19 1010.23 1011.24 1012.20 1013.09 1013.91 1014.68 1015.39 1016.07 1016.71 1017.32 1017.90 1018.43 1018.90 1019.31 1019.65 1019.91 1020.12 1020.28 1020.40 1020.51 1020.61 1020.71 1020.81 1020.89 1020.94 1020.93
1010.79 1010.19 1009.48 1008.69 1007.86 1007.04 1006.27 1005.61 1005.10 1004.77 1004.65 1004.76 1005.10 1005.64 1006.37 1007.24 1008.21 1009.23 1010.26 1011.27 1012.23 1013.13 1013.97 1014.74 1015.46 1016.14 1016.77 1017.35 1017.90 1018.39 1018.83 1019.21 1019.53 1019.78 1019.99 1020.17 1020.32 1020.46 1020.60 1020.73 1020.86 1020.98 1021.05 1021.07
1009.67 1009.00 1008.27 1007.51 1006.77 1006.08 1005.48 1005.00 1004.67 1004.52 1004.55 1004.78 1005.20 1005.80 1006.54 1007.41 1008.36 1009.35 1010.36 1011.35 1012.31 1013.21 1014.05 1014.83 1015.55 1016.21 1016.82 1017.38 1017.89 1018.34 1018.75 1019.10 1019.40 1019.65 1019.87 1020.06 1020.24 1020.40 1020.56 1020.71 1020.85 1020.96 1021.04 1021.07
1008.40 1007.72 1007.03 1006.37 1005.76 1005.25 1004.85 1004.58 1004.45 1004.47 1004.65 1004.99 1005.47 1006.09 1006.83 1007.67 1008.59 1009.54 1010.52 1011.48 1012.42 1013.32 1014.15 1014.93 1015.64 1016.29 1016.87 1017.40 1017.88 1018.30 1018.67 1019.00 1019.29 1019.54 1019.77 1019.97 1020.16 1020.34 1020.51 1020.66 1020.79 1020.89 1020.95 1020.96
Thickness
5803 5788 5779 5786 5791 5793 5789 5781 5777 5786 5801 5793 5784 5785 5792 5798 5796 5793 5791 5791 5792 5793 5796 5795 5794 5793 5791 5788 5786 5785 5783 5781 5779 5777 5774 5771 5769 5769 5768 5769 5768 5768 5767 5766
5786 5781 5797 5802 5800 5795 5788 5779 5779 5788 5799 5792 5781 5782 5792 5796 5795 5795 5793 5791 5793 5793 5793 5793 5792 5790 5789 5787 5785 5784 5782 5781 5779 5776 5773 5771 5768 5766 5766 5766 5766 5766 5765 5764
5782 5793 5807 5801 5795 5788 5785 5780 5781 5782 5789 5789 5781 5775 5784 5794 5797 5798 5797 5796 5796 5794 5792 5791 5790 5788 5787 5786 5784 5783 5781 5780 5778 5776 5773 5770 5766 5764 5763 5762 5762 5763 5762 5762
5787 5800 5802 5797 5793 5791 5778 5794 5792 5786 5772 5760 5769 5749 5774 5784 5787 5791 5794 5795 5795 5796 5794 5792 5790 5787 5786 5786 5785 5782 5780 5778 5776 5775 5771 5767 5763 5759 5759 5759 5759 5760 5759 5759
5785 5797 5796 5791 5796 5798 5791 5800 5790 5782 5769 5757 5760 5750 5763 5779 5779 5787 5793 5795 5796 5796 5795 5792 5791 5789 5787 5785 5783 5780 5778 5776 5774 5773 5770 5766 5761 5760 5759 5758 5757 5756 5756 5756
5791 5803 5803 5801 5806 5806 5801 5789 5777 5764 5755 5741 5754 5748 5756 5772 5784 5790 5795 5797 5797 5796 5795 5793 5792 5789 5786 5784 5781 5779 5776 5773 5772 5770 5768 5765 5761 5759 5756 5754 5753 5752 5752 5752
5778 5791 5802 5808 5796 5796 5789 5764 5741 5737 5727 5733 5753 5750 5760 5790 5798 5798 5796 5797 5797 5795 5793 5790 5788 5786 5784 5781 5779 5777 5775 5771 5769 5767 5765 5763 5760 5757 5754 5751 5749 5748 5747 5747
5759 5763 5790 5800 5795 5784 5778 5767 5739 5727 5723 5732 5748 5748 5775 5799 5803 5803 5800 5798 5796 5793 5791 5789 5788 5786 5784 5782 5779 5775 5772 5769 5767 5764 5762 5760 5757 5754 5752 5749 5748 5746 5744 5743
5756 5761 5792 5801 5803 5792 5773 5762 5764 5740 5734 5730 5738 5754 5779 5799 5797 5796 5795 5794 5792 5791 5789 5788 5787 5785 5784 5781 5778 5775 5771 5767 5765 5762 5759 5756 5753 5751 5749 5747 5745 5744 5742 5741
5770 5761 5780 5793 5797 5790 5783 5767 5748 5735 5723 5721 5736 5746 5757 5781 5786 5789 5789 5789 5789 5789 5787 5786 5785 5784 5782 5780 5777 5774 5770 5765 5762 5760 5756 5754 5751 5748 5745 5743 5741 5740 5738 5737
5772 5758 5765 5775 5772 5769 5769 5760 5747 5733 5733 5720 5720 5742 5780 5783 5787 5787 5789 5789 5788 5786 5784 5783 5782 5782 5780 5777 5774 5771 5767 5763 5760 5756 5753 5750 5748 5745 5742 5739 5737 5736 5734 5732
5765 5750 5744 5759 5778 5784 5776 5765 5750 5738 5730 5725 5723 5744 5791 5789 5790 5789 5788 5788 5788 5786 5784 5782 5780 5778 5776 5773 5770 5768 5765 5761 5758 5754 5751 5748 5745 5742 5739 5736 5733 5732 5730 5727
5760 5743 5731 5739 5753 5766 5765 5762 5756 5744 5730 5720 5722 5747 5787 5787 5787 5788 5787 5787 5785 5783 5781 5778 5776 5774 5772 5769 5766 5763 5761 5758 5755 5752 5748 5744 5741 5737 5734 5732 5730 5728 5726 5723
5763 5739 5733 5730 5739 5751 5755 5757 5754 5745 5729 5725 5734 5751 5772 5779 5781 5783 5784 5784 5782 5780 5777 5774 5771 5769 5768 5766 5763 5760 5757 5755 5751 5748 5744 5740 5737 5733 5730 5728 5726 5724 5721 5718
5753 5735 5739 5743 5752 5755 5756 5757 5755 5751 5746 5740 5750 5754 5768 5776 5780 5782 5782 5780 5776 5774 5772 5770 5767 5764 5763 5761 5758 5756 5754 5751 5747 5743 5739 5735 5732 5729 5726 5723 5720 5718 5716 5713
5738 5732 5735 5738 5748 5751 5751 5757 5757 5756 5754 5752 5756 5759 5776 5780 5780 5778 5777 5776 5772 5771 5771 5770 5767 5763 5760 5758 5755 5752 5749 5746 5743 5738 5734 5731 5727 5724 5720 5717 5714 5712 5709 5706
5724 5724 5721 5721 5735 5742 5735 5750 5754 5755 5758 5757 5752 5763 5774 5773 5775 5775 5775 5773 5772 5771 5770 5767 5765 5761 5758 5756 5753 5748 5744 5741 5737 5733 5729 5725 5722 5718 5715 5712 5708 5705 5702 5699
5719 5712 5706 5709 5722 5714 5738 5759 5760 5756 5757 5760 5762 5766 5769 5772 5775 5777 5776 5773 5772 5771 5768 5766 5762 5758 5756 5754 5750 5746 5741 5737 5733 5729 5724 5721 5717 5713 5709 5706 5702 5698 5695 5692
5718 5712 5701 5697 5702 5713 5737 5752 5753 5748 5749 5760 5759 5762 5766 5770 5770 5770 5776 5775 5773 5771 5769 5766 5761 5757 5753 5749 5746 5741 5736 5732 5727 5723 5720 5716 5712 5708 5704 5700 5696 5692 5688 5685
5709 5708 5699 5694 5699 5701 5729 5752 5758 5750 5738 5757 5758 5757 5759 5762 5752 5759 5771 5770 5769 5768 5765 5761 5757 5753 5748 5744 5741 5735 5730 5726 5722 5719 5715 5711 5707 5703 5698 5694 5690 5686 5682 5678
5697 5694 5693 5691 5694 5705 5733 5746 5751 5728 5733 5755 5756 5756 5755 5754 5756 5763 5767 5766 5764 5762 5760 5756 5751 5746 5743 5739 5735 5729 5724 5720 5718 5714 5710 5705 5701 5697 5693 5688 5684 5679 5675 5671
5689 5687 5685 5684 5688 5700 5733 5736 5731 5732 5746 5750 5752 5754 5752 5754 5758 5759 5760 5759 5758 5755 5752 5749 5744 5739 5736 5733 5729 5723 5718 5715 5712 5708 5703 5699 5695 5692 5687 5681 5676 5672 5668 5663
5686 5690 5689 5692 5700 5717 5727 5730 5736 5739 5740 5745 5747 5750 5751 5751 5751 5752 5752 5752 5751 5748 5745 5742 5738 5733 5728 5726 5723 5718 5714 5710 5706 5701 5696 5691 5687 5683 5679 5674 5669 5664 5660 5655
5686 5690 5688 5692 5705 5716 5722 5728 5733 5736 5738 5742 5745 5746 5747 5745 5746 5745 5744 5743 5742 5740 5737 5735 5731 5726 5721 5718 5716 5713 5709 5705 5699 5694 5689 5684 5679 5675 5670 5666 5662 5657 5652 5648
5681 5683 5683 5687 5700 5710 5718 5722 5726 5731 5734 5737 5738 5740 5740 5740 5739 5738 5737 5736 5734 5732 5730 5727 5724 5720 5715 5712 5709 5706 5702 5698 5692 5687 5682 5677 5673 5668 5663 5658 5654 5650 5646 5642
5677 5678 5679 5684 5696 5698 5706 5716 5721 5722 5724 5727 5728 5729 5732 5733 5732 5732 5729 5728 5727 5724 5721 5718 5716 5712 5709 5706 5703 5699 5696 5692 5686 5680 5675 5670 5665 5660 5656 5651 5647 5643 5639 5635